| time (UTC) | temp F | wind direction | speed MPH | gust MPH | rain 1hr in | rain 24hr in | rain mn in | humidity % | barometer mb |
| 20260503213517 | 84 | 129 | 2.0 | 8.0 | 0.00 | 0.00 | 0.00 | 99 | 1022.7 |
| 20260503213013 | 83 | 162 | 0.0 | 11.0 | 0.00 | 0.00 | 0.00 | 99 | 1022.4 |
| 20260503212510 | 85 | 187 | 2.0 | 6.0 | 0.00 | 0.00 | 0.00 | 99 | 1023.1 |
| 20260503212008 | 84 | 75 | 3.0 | 8.0 | 0.00 | 0.00 | 0.00 | 99 | 1022.8 |
| 20260503211505 | 83 | 109 | 2.0 | 7.0 | 0.00 | 0.00 | 0.00 | 99 | 1022.9 |
| 20260503211000 | 84 | 120 | 2.0 | 11.0 | 0.00 | 0.00 | 0.00 | 99 | 1023.2 |
| 20260503210458 | 83 | 234 | 4.0 | 9.0 | 0.00 | 0.00 | 0.00 | 99 | 1023.1 |
| 20260503205957 | 82 | 102 | 0.0 | 11.0 | 0.00 | 0.00 | 0.00 | 99 | 1023.2 |
| 20260503205455 | 83 | 188 | 2.0 | 10.0 | 0.00 | 0.00 | 0.00 | 99 | 1023.3 |
| 20260503204951 | 83 | 135 | 2.0 | 5.0 | 0.00 | 0.00 | 0.00 | 99 | 1023.5 |
| 20260503204448 | 83 | 218 | 9.0 | 11.0 | 0.00 | 0.00 | 0.00 | 99 | 1023.5 |
| 20260503203945 | 83 | 166 | 3.0 | 4.0 | 0.00 | 0.00 | 0.00 | 99 | 1023.4 |
| 20260503203443 | 83 | 270 | 3.0 | 4.0 | 0.00 | 0.00 | 0.00 | 99 | 1023.8 |
| 20260503202939 | 83 | 139 | 0.0 | 5.0 | 0.00 | 0.00 | 0.00 | 99 | 1023.7 |
| 20260503202438 | 81 | 243 | 1.0 | 2.0 | 0.00 | 0.00 | 0.00 | 99 | 1024.1 |
| 20260503201936 | 82 | 203 | 2.0 | 8.0 | 0.00 | 0.00 | 0.00 | 99 | 1024.2 |
| 20260503201433 | 82 | 180 | 0.0 | 8.0 | 0.00 | 0.00 | 0.00 | 99 | 1023.9 |
| 20260503200930 | 82 | 111 | 1.0 | 6.0 | 0.00 | 0.00 | 0.00 | 99 | 1024.2 |
| 20260503200426 | 82 | 263 | 7.0 | 9.0 | 0.00 | 0.00 | 0.00 | 99 | 1024.2 |
| 20260503195923 | 82 | 127 | 0.0 | 3.0 | 0.00 | 0.00 | 0.00 | 99 | 1024.3 |
| 20260503195421 | 81 | 303 | 5.0 | 9.0 | 0.00 | 0.00 | 0.00 | 99 | 1024.7 |
| 20260503194917 | 81 | 188 | 3.0 | 14.0 | 0.00 | 0.00 | 0.00 | 99 | 1024.4 |
| 20260503194413 | 81 | 258 | 5.0 | 8.0 | 0.00 | 0.00 | 0.00 | 99 | 1024.7 |
| 20260503193909 | 81 | 228 | 2.0 | 11.0 | 0.00 | 0.00 | 0.00 | 99 | 1024.6 |
| 20260503193405 | 82 | 245 | 7.0 | 14.0 | 0.00 | 0.00 | 0.00 | 99 | 1024.8 |
| 20260503192900 | 82 | 228 | 4.0 | 10.0 | 0.00 | 0.00 | 0.00 | 99 | 1024.9 |
| 20260503192356 | 82 | 140 | 0.0 | 9.0 | 0.00 | 0.00 | 0.00 | 99 | 1024.9 |
| 20260503191853 | 82 | 210 | 2.0 | 8.0 | 0.00 | 0.00 | 0.00 | 99 | 1025.2 |
| 20260503191350 | 80 | 219 | 3.0 | 12.0 | 0.00 | 0.00 | 0.00 | 99 | 1025.2 |
| 20260503190847 | 81 | 234 | 8.0 | 9.0 | 0.00 | 0.00 | 0.00 | 99 | 1025.1 |
| 20260503190344 | 81 | 135 | 2.0 | 8.0 | 0.00 | 0.00 | 0.00 | 99 | 1025.1 |
| 20260503185841 | 81 | 246 | 3.0 | 5.0 | 0.00 | 0.00 | 0.00 | 99 | 1025.1 |
| 20260503185337 | 80 | 258 | 4.0 | 13.0 | 0.00 | 0.00 | 0.00 | 99 | 1025.2 |
| 20260503184837 | 80 | 257 | 4.0 | 10.0 | 0.00 | 0.00 | 0.00 | 99 | 1025.5 |
| 20260503184333 | 79 | 249 | 5.0 | 10.0 | 0.00 | 0.00 | 0.00 | 99 | 1025.6 |
| 20260503183829 | 81 | 248 | 3.0 | 4.0 | 0.00 | 0.00 | 0.00 | 99 | 1025.7 |
| 20260503183326 | 80 | 217 | 2.0 | 17.0 | 0.00 | 0.00 | 0.00 | 99 | 1025.9 |
| 20260503182824 | 80 | 258 | 3.0 | 10.0 | 0.00 | 0.00 | 0.00 | 99 | 1026.1 |
| 20260503182323 | 80 | 196 | 0.0 | 5.0 | 0.00 | 0.00 | 0.00 | 99 | 1025.9 |
| 20260503181820 | 79 | 216 | 10.0 | 13.0 | 0.00 | 0.00 | 0.00 | 99 | 1026.1 |
| 20260503181317 | 79 | 202 | 2.0 | 10.0 | 0.00 | 0.00 | 0.00 | 99 | 1026.0 |
| 20260503180813 | 80 | 199 | 3.0 | 11.0 | 0.00 | 0.00 | 0.00 | 99 | 1026.0 |
| 20260503180311 | 81 | 152 | 0.0 | 4.0 | 0.00 | 0.00 | 0.00 | 99 | 1026.5 |
| 20260503175807 | 79 | 242 | 4.0 | 10.0 | 0.00 | 0.00 | 0.00 | 99 | 1026.5 |
| 20260503175306 | 80 | 216 | 0.0 | 13.0 | 0.00 | 0.00 | 0.00 | 99 | 1026.5 |
| 20260503174800 | 78 | 314 | 4.0 | 13.0 | 0.00 | 0.00 | 0.00 | 99 | 1026.7 |
| 20260503174259 | 79 | 227 | 3.0 | 14.0 | 0.00 | 0.00 | 0.00 | 99 | 1026.7 |
| 20260503173754 | 80 | 135 | 3.0 | 8.0 | 0.00 | 0.00 | 0.00 | 99 | 1026.8 |
| 20260503173250 | 79 | 246 | 4.0 | 9.0 | 0.00 | 0.00 | 0.00 | 99 | 1027.2 |
| 20260503172747 | 78 | 220 | 3.0 | 7.0 | 0.00 | 0.00 | 0.00 | 99 | 1027.2 |
| 20260503172244 | 78 | 232 | 4.0 | 15.0 | 0.00 | 0.00 | 0.00 | 99 | 1027.2 |
| 20260503171741 | 78 | 241 | 9.0 | 12.0 | 0.00 | 0.00 | 0.00 | 99 | 1026.9 |
| 20260503171238 | 77 | 236 | 4.0 | 11.0 | 0.00 | 0.00 | 0.00 | 99 | 1026.9 |
| 20260503170735 | 77 | 195 | 0.0 | 13.0 | 0.00 | 0.00 | 0.00 | 99 | 1027.2 |
| 20260503170232 | 77 | 242 | 6.0 | 11.0 | 0.00 | 0.00 | 0.00 | 99 | 1027.3 |
| 20260503160154 | 75 | 261 | 8.0 | 9.0 | 0.00 | 0.00 | 0.00 | 99 | 1027.7 |
| 20260503150624 | 73 | 243 | 2.0 | 11.0 | 0.00 | 0.00 | 0.00 | 99 | 1027.6 |
| 20260503150120 | 72 | 297 | 3.0 | 11.0 | 0.00 | 0.00 | 0.00 | 99 | 1027.6 |
| 20260503131014 | 60 | 4 | 0.0 | 0.0 | 0.00 | 0.00 | 0.00 | 99 | 1027.4 |
| 20260503130511 | 59 | 4 | 0.0 | 0.0 | 0.00 | 0.00 | 0.00 | 99 | 1027.5 |
| 20260503110401 | 52 | 0 | 0.0 | 0.0 | 0.00 | 0.00 | 0.00 | 99 | 1026.6 |
| 20260503090252 | 55 | 23 | 0.0 | 0.0 | 0.00 | 0.00 | 0.00 | 99 | 1026.4 |
| 20260503081220 | 55 | 90 | 0.0 | 0.0 | 0.00 | 0.00 | 0.00 | 99 | 1026.3 |
| 20260503080715 | 56 | 90 | 0.0 | 0.0 | 0.00 | 0.00 | 0.00 | 99 | 1026.6 |
| 20260503080213 | 56 | 270 | 0.0 | 0.0 | 0.00 | 0.00 | 0.00 | 99 | 1026.1 |
| 20260503072649 | 58 | 270 | 0.0 | 0.0 | 0.00 | 0.00 | 0.00 | 99 | 1026.4 |
| 20260503072146 | 58 | 270 | 0.0 | 0.0 | 0.00 | 0.00 | 0.00 | 99 | 1026.4 |
| 20260503071643 | 59 | 270 | 0.0 | 1.0 | 0.00 | 0.00 | 0.00 | 99 | 1026.6 |
| 20260503071139 | 59 | 279 | 0.0 | 0.0 | 0.00 | 0.00 | 0.00 | 99 | 1026.5 |
| 20260503070637 | 58 | 0 | 0.0 | 0.0 | 0.00 | 0.00 | 0.00 | 99 | 1026.7 |
| 20260503070135 | 59 | 255 | 0.0 | 0.0 | 0.00 | 0.00 | 0.00 | 99 | 1026.6 |
| 20260503055050 | 59 | 229 | 0.0 | 2.0 | 0.00 | 0.00 | 0.00 | 99 | 1026.6 |
| 20260503054546 | 59 | 66 | 0.0 | 0.0 | 0.00 | 0.00 | 0.00 | 99 | 1026.3 |
| 20260503054043 | 59 | 66 | 0.0 | 1.0 | 0.00 | 0.00 | 0.00 | 99 | 1026.5 |
| 20260503053541 | 58 | 105 | 0.0 | 1.0 | 0.00 | 0.00 | 0.00 | 99 | 1026.7 |
| 20260503053039 | 58 | 90 | 0.0 | 0.0 | 0.00 | 0.00 | 0.00 | 99 | 1026.6 |
| 20260503052535 | 58 | 90 | 0.0 | 0.0 | 0.00 | 0.00 | 0.00 | 99 | 1026.5 |
| 20260503052031 | 58 | 90 | 0.0 | 0.0 | 0.00 | 0.00 | 0.00 | 99 | 1026.5 |
| 20260503051527 | 59 | 90 | 0.0 | 0.0 | 0.00 | 0.00 | 0.00 | 99 | 1026.4 |
| 20260503051025 | 59 | 90 | 0.0 | 0.0 | 0.00 | 0.00 | 0.00 | 99 | 1026.5 |
| 20260503050520 | 59 | 90 | 0.0 | 0.0 | 0.00 | 0.00 | 0.00 | 99 | 1026.4 |
| 20260503050018 | 59 | 90 | 0.0 | 0.0 | 0.00 | 0.00 | 0.00 | 99 | 1026.3 |
| 20260503045515 | 59 | 90 | 0.0 | 0.0 | 0.00 | 0.00 | 0.00 | 99 | 1026.1 |
| 20260503045012 | 59 | 90 | 0.0 | 0.0 | 0.00 | 0.00 | 0.00 | 99 | 1026.3 |
| 20260503044509 | 59 | 90 | 0.0 | 0.0 | 0.00 | 0.00 | 0.00 | 99 | 1026.3 |
| 20260503044007 | 59 | 90 | 0.0 | 0.0 | 0.00 | 0.00 | 0.00 | 99 | 1026.3 |
| 20260503043503 | 59 | 90 | 0.0 | 0.0 | 0.00 | 0.00 | 0.00 | 99 | 1026.1 |
| 20260503042959 | 59 | 90 | 0.0 | 0.0 | 0.00 | 0.00 | 0.00 | 99 | 1026.1 |
| 20260503042456 | 59 | 90 | 0.0 | 0.0 | 0.00 | 0.00 | 0.00 | 99 | 1026.3 |
| 20260503041952 | 59 | 90 | 0.0 | 0.0 | 0.00 | 0.00 | 0.00 | 99 | 1026.2 |
| 20260503041449 | 60 | 90 | 0.0 | 0.0 | 0.00 | 0.00 | 0.00 | 99 | 1026.2 |
| 20260503040947 | 60 | 90 | 0.0 | 0.0 | 0.00 | 0.00 | 0.00 | 99 | 1026.4 |
| 20260503040444 | 60 | 90 | 0.0 | 0.0 | 0.00 | 0.00 | 0.00 | 99 | 1026.4 |
| 20260503035941 | 60 | 90 | 0.0 | 0.0 | 0.00 | 0.00 | 0.00 | 99 | 1026.4 |
| 20260503035438 | 61 | 90 | 0.0 | 0.0 | 0.00 | 0.00 | 0.00 | 99 | 1026.4 |
| 20260503034936 | 61 | 90 | 0.0 | 0.0 | 0.00 | 0.00 | 0.00 | 99 | 1026.3 |
| 20260503034433 | 61 | 90 | 0.0 | 0.0 | 0.00 | 0.00 | 0.00 | 99 | 1026.3 |
| 20260503033930 | 62 | 90 | 0.0 | 0.0 | 0.00 | 0.00 | 0.00 | 99 | 1026.4 |
| 20260503033427 | 62 | 90 | 0.0 | 0.0 | 0.00 | 0.00 | 0.00 | 99 | 1026.1 |
| 20260503032925 | 62 | 90 | 0.0 | 0.0 | 0.00 | 0.00 | 0.00 | 99 | 1026.2 |
| 20260503032424 | 63 | 90 | 0.0 | 0.0 | 0.00 | 0.00 | 0.00 | 99 | 1026.3 |
| 20260503031921 | 63 | 90 | 0.0 | 1.0 | 0.00 | 0.00 | 0.00 | 99 | 1026.3 |
| 20260503031418 | 63 | 203 | 0.0 | 0.0 | 0.00 | 0.00 | 0.00 | 99 | 1026.1 |
| 20260503030915 | 63 | 203 | 0.0 | 0.0 | 0.00 | 0.00 | 0.00 | 99 | 1026.0 |
| 20260503030411 | 63 | 157 | 0.0 | 1.0 | 0.00 | 0.00 | 0.00 | 99 | 1026.1 |
| 20260503025908 | 63 | 90 | 0.0 | 0.0 | 0.00 | 0.00 | 0.00 | 99 | 1025.9 |
| 20260503025405 | 63 | 105 | 0.0 | 1.0 | 0.00 | 0.00 | 0.00 | 99 | 1026.3 |
| 20260503024903 | 63 | 234 | 0.0 | 0.0 | 0.00 | 0.00 | 0.00 | 99 | 1025.8 |
| 20260503024359 | 63 | 234 | 0.0 | 0.0 | 0.00 | 0.00 | 0.00 | 99 | 1025.9 |
| 20260503023856 | 63 | 234 | 0.0 | 0.0 | 0.00 | 0.00 | 0.00 | 99 | 1025.9 |
| 20260503023353 | 64 | 234 | 0.0 | 0.0 | 0.00 | 0.00 | 0.00 | 99 | 1025.8 |
| 20260503022849 | 64 | 234 | 0.0 | 0.0 | 0.00 | 0.00 | 0.00 | 99 | 1025.9 |
| 20260503022344 | 64 | 234 | 0.0 | 0.0 | 0.00 | 0.00 | 0.00 | 99 | 1025.6 |
| 20260503021841 | 65 | 234 | 0.0 | 0.0 | 0.00 | 0.00 | 0.00 | 99 | 1025.7 |
| 20260503021337 | 65 | 234 | 0.0 | 0.0 | 0.00 | 0.00 | 0.00 | 99 | 1025.5 |
| 20260503020834 | 66 | 234 | 0.0 | 0.0 | 0.00 | 0.00 | 0.00 | 99 | 1025.5 |
| 20260503020332 | 66 | 234 | 0.0 | 0.0 | 0.00 | 0.00 | 0.00 | 99 | 1025.4 |
| 20260503015829 | 66 | 234 | 0.0 | 0.0 | 0.00 | 0.00 | 0.00 | 99 | 1025.5 |
| 20260503015326 | 67 | 234 | 0.0 | 0.0 | 0.00 | 0.00 | 0.00 | 99 | 1025.5 |
| 20260503014821 | 67 | 234 | 0.0 | 0.0 | 0.00 | 0.00 | 0.00 | 99 | 1025.5 |
| 20260503014319 | 67 | 234 | 0.0 | 0.0 | 0.00 | 0.00 | 0.00 | 99 | 1025.4 |
| 20260503013816 | 68 | 234 | 0.0 | 0.0 | 0.00 | 0.00 | 0.00 | 99 | 1025.4 |
| 20260503013314 | 68 | 234 | 0.0 | 0.0 | 0.00 | 0.00 | 0.00 | 99 | 1025.2 |
| 20260503012811 | 70 | 234 | 0.0 | 0.0 | 0.00 | 0.00 | 0.00 | 99 | 1025.4 |
| 20260503012308 | 71 | 234 | 0.0 | 0.0 | 0.00 | 0.00 | 0.00 | 99 | 1025.1 |
| 20260503011805 | 71 | 234 | 0.0 | 2.0 | 0.00 | 0.00 | 0.00 | 99 | 1025.1 |
| 20260503011302 | 72 | 270 | 0.0 | 0.0 | 0.00 | 0.00 | 0.00 | 99 | 1025.1 |
| 20260503010758 | 72 | 270 | 0.0 | 1.0 | 0.00 | 0.00 | 0.00 | 99 | 1025.2 |
| 20260503010255 | 73 | 255 | 0.0 | 2.0 | 0.00 | 0.00 | 0.00 | 99 | 1024.8 |
| 20260503005752 | 73 | 270 | 0.0 | 2.0 | 0.00 | 0.00 | 0.00 | 99 | 1025.0 |
| 20260503005250 | 74 | 270 | 0.0 | 3.0 | 0.00 | 0.00 | 0.00 | 99 | 1025.0 |
| 20260503004745 | 74 | 279 | 0.0 | 2.0 | 0.00 | 0.00 | 0.00 | 99 | 1024.9 |
| 20260503004244 | 75 | 311 | 3.0 | 4.0 | 0.00 | 0.00 | 0.00 | 99 | 1024.7 |
| 20260503003740 | 75 | 286 | 0.0 | 1.0 | 0.00 | 0.00 | 0.00 | 99 | 1024.9 |
| 20260503003238 | 76 | 270 | 0.0 | 3.0 | 0.00 | 0.00 | 0.00 | 99 | 1024.8 |
| 20260503002734 | 76 | 297 | 1.0 | 3.0 | 0.00 | 0.00 | 0.00 | 99 | 1024.8 |
| 20260503002231 | 76 | 263 | 3.0 | 4.0 | 0.00 | 0.00 | 0.00 | 99 | 1024.8 |
| 20260503001727 | 76 | 254 | 1.0 | 5.0 | 0.00 | 0.00 | 0.00 | 99 | 1024.8 |
| 20260503001224 | 76 | 291 | 3.0 | 6.0 | 0.00 | 0.00 | 0.00 | 99 | 1024.9 |
| 20260503000722 | 77 | 332 | 2.0 | 4.0 | 0.00 | 0.00 | 0.00 | 99 | 1024.9 |
| 20260503000219 | 77 | 290 | 2.0 | 4.0 | 0.00 | 0.00 | 0.00 | 99 | 1025.0 |
| 20260502235716 | 77 | 217 | 2.0 | 5.0 | 0.00 | 0.00 | 0.00 | 99 | 1024.8 |
| 20260502235214 | 78 | 351 | 3.0 | 4.0 | 0.00 | 0.00 | 0.00 | 99 | 1024.8 |
| 20260502234710 | 79 | 261 | 1.0 | 1.0 | 0.00 | 0.00 | 0.00 | 99 | 1024.5 |
| 20260502234207 | 77 | 281 | 3.0 | 7.0 | 0.00 | 0.00 | 0.00 | 99 | 1024.7 |
| 20260502233703 | 77 | 297 | 2.0 | 7.0 | 0.00 | 0.00 | 0.00 | 99 | 1024.7 |
| 20260502233200 | 78 | 294 | 0.0 | 3.0 | 0.00 | 0.00 | 0.00 | 99 | 1024.8 |
| 20260502232655 | 78 | 265 | 2.0 | 3.0 | 0.00 | 0.00 | 0.00 | 99 | 1025.1 |
| 20260502232153 | 77 | 259 | 2.0 | 5.0 | 0.00 | 0.00 | 0.00 | 99 | 1024.9 |
| 20260502231649 | 77 | 258 | 3.0 | 6.0 | 0.00 | 0.00 | 0.00 | 99 | 1025.0 |
| 20260502231147 | 76 | 260 | 6.0 | 6.0 | 0.00 | 0.00 | 0.00 | 99 | 1025.0 |
| 20260502230646 | 75 | 312 | 2.0 | 6.0 | 0.00 | 0.00 | 0.00 | 99 | 1025.1 |
| 20260502230144 | 77 | 288 | 5.0 | 8.0 | 0.00 | 0.00 | 0.00 | 99 | 1025.5 |
| 20260502225639 | 78 | 290 | 2.0 | 4.0 | 0.00 | 0.00 | 0.00 | 99 | 1025.0 |
| 20260502225137 | 77 | 236 | 3.0 | 5.0 | 0.00 | 0.00 | 0.00 | 99 | 1025.0 |
| 20260502224632 | 78 | 297 | 1.0 | 3.0 | 0.00 | 0.00 | 0.00 | 99 | 1025.1 |
| 20260502224129 | 78 | 261 | 0.0 | 3.0 | 0.00 | 0.00 | 0.00 | 99 | 1025.2 |
| 20260502223627 | 77 | 354 | 3.0 | 3.0 | 0.00 | 0.00 | 0.00 | 99 | 1025.2 |
| 20260502223125 | 77 | 74 | 2.0 | 5.0 | 0.00 | 0.00 | 0.00 | 99 | 1025.2 |
| 20260502222622 | 76 | 345 | 1.0 | 3.0 | 0.00 | 0.00 | 0.00 | 99 | 1025.4 |
| 20260502222119 | 75 | 78 | 0.0 | 5.0 | 0.00 | 0.00 | 0.00 | 99 | 1025.2 |
| 20260502221614 | 75 | 326 | 3.0 | 8.0 | 0.00 | 0.00 | 0.00 | 99 | 1025.5 |
| 20260502221112 | 76 | 12 | 3.0 | 6.0 | 0.00 | 0.00 | 0.00 | 99 | 1025.4 |
| 20260502220608 | 76 | 21 | 3.0 | 5.0 | 0.00 | 0.00 | 0.00 | 99 | 1025.7 |
| 20260502220104 | 76 | 51 | 8.0 | 8.0 | 0.00 | 0.00 | 0.00 | 99 | 1025.5 |
| 20260502215602 | 76 | 64 | 5.0 | 10.0 | 0.00 | 0.00 | 0.00 | 99 | 1025.6 |
| 20260502215059 | 77 | 15 | 1.0 | 7.0 | 0.00 | 0.00 | 0.00 | 99 | 1025.9 |
| 20260502214555 | 79 | 254 | 0.0 | 3.0 | 0.00 | 0.00 | 0.00 | 99 | 1025.6 |
| 20260502214053 | 77 | 270 | 3.0 | 5.0 | 0.00 | 0.00 | 0.00 | 99 | 1025.7 |